CDT,Max TemperatureF,Mean TemperatureF,Min TemperatureF,Max Dew PointF,MeanDew PointF,Min DewpointF,Max Humidity, Mean Humidity, Min Humidity, Max Sea Level PressureIn, Mean Sea Level PressureIn, Min Sea Level PressureIn, Max VisibilityMiles, Mean VisibilityMiles, Min VisibilityMiles, Max Wind SpeedMPH, Mean Wind SpeedMPH, Max Gust SpeedMPH,PrecipitationIn, CloudCover, Events, WindDirDegrees
2013-8-1,80,66,52,57,53,48,100,68,34,30.01,29.97,29.89,10,10,3,15,4,22,0.00,1,,293
2013-8-2,80,68,55,59,54,48,100,75,35,30.01,29.89,29.84,10,7,0,13,2,21,0.00,1,Fog,301
2013-8-3,79,63,48,52,49,44,100,73,30,30.18,30.09,30.02,10,7,0,14,2,21,0.01,1,Fog,330
2013-8-4,78,62,48,52,49,44,93,63,31,30.26,30.19,30.12,10,10,10,8,3,,0.00,1,,329
2013-8-5,73,64,54,63,58,51,93,80,61,30.09,29.96,29.86,10,10,6,12,5,,0.02,6,Rain,190
2013-8-6,84,73,62,66,62,56,100,82,38,29.87,29.83,29.73,10,6,0,15,3,22,0.00,5,Fog-Rain-Thunderstorm,224
2013-8-7,84,69,55,62,56,50,100,67,45,30.04,29.93,29.82,10,10,8,12,7,18,0.00,4,,346
2013-8-8,78,62,46,55,49,45,100,71,32,30.07,30.04,30.00,10,8,1,9,1,,0.00,1,,254
2013-8-9,80,68,57,59,54,48,93,62,36,30.10,30.02,29.99,10,10,10,17,4,22,0.00,5,,315
2013-8-10,75,64,55,54,52,47,93,65,38,30.19,30.15,30.11,10,10,10,9,2,,0.00,6,,325
2013-8-11,71,62,54,63,59,53,100,93,70,30.15,30.09,30.05,10,6,0,7,1,,0.13,4,Fog-Rain,164
2013-8-12,80,67,55,63,58,51,100,79,38,30.06,30.00,29.94,10,5,0,13,2,23,0.12,5,Fog-Rain,312
2013-8-13,73,59,46,48,46,44,96,63,38,30.21,30.15,30.07,10,10,10,14,6,18,0.01,2,,4
2013-8-14,75,58,42,49,45,41,100,71,34,30.25,30.21,30.14,10,8,1,10,2,,0.00,2,,308
2013-8-15,81,66,51,54,50,46,96,63,31,30.17,30.13,30.10,10,10,9,12,3,17,0.00,5,,285
2013-8-16,82,65,48,55,50,47,100,74,29,30.21,30.18,30.15,10,7,1,8,1,,0.00,0,,301
2013-8-17,84,66,51,58,52,48,100,73,30,30.26,30.22,30.16,10,7,0,8,1,,0.00,1,Fog,223
2013-8-18,84,68,51,70,54,49,100,67,31,30.23,30.16,30.09,10,9,2,12,2,18,0.00,0,,223
2013-8-19,84,68,53,62,57,53,100,75,39,30.09,30.06,30.01,10,7,1,13,3,25,0.00,0,,222
2013-8-20,89,76,63,65,63,60,93,65,43,30.04,30.00,29.96,10,9,7,16,8,24,0.00,3,,193
2013-8-21,91,78,64,72,66,64,100,73,47,30.04,29.97,29.89,10,8,0,16,8,37,0.18,3,Fog-Rain-Thunderstorm,212
2013-8-22,86,73,62,63,59,50,100,73,31,30.14,30.08,30.01,10,8,0,12,3,,0.00,1,Fog,26
2013-8-23,86,70,57,60,55,52,94,66,34,30.21,30.17,30.12,10,9,1,8,4,,0.00,1,Rain,144
2013-8-24,87,72,57,66,59,47,84,61,35,30.25,30.18,30.11,10,10,10,12,5,18,0.00,2,Rain,182
2013-8-25,95,83,73,70,68,65,79,62,43,30.14,30.08,30.02,10,10,10,20,11,26,0.00,0,,212
2013-8-26,95,82,71,74,68,63,87,64,44,30.16,30.01,29.91,10,10,10,18,9,23,0.00,1,Rain-Thunderstorm,207
2013-8-27,97,86,75,76,72,69,94,72,43,29.92,29.86,29.79,10,10,9,15,6,21,0.02,4,Rain-Thunderstorm,189
2013-8-28,89,80,72,73,68,64,94,74,45,30.07,30.00,29.89,10,10,8,8,6,,0.00,4,,66
2013-8-29,91,76,62,70,65,63,100,77,44,30.10,30.04,29.94,10,6,0,10,2,,0.00,1,Fog,181
2013-8-30,88,79,68,72,67,60,91,68,46,29.92,29.86,29.83,10,10,8,15,9,24,0.00,3,,354
2013-8-31,86,70,57,63,60,57,97,72,38,29.93,29.88,29.79,10,10,10,8,4,,0.00,2,,116